Total_Precipitation_Accumulation
0.00 0.00 0.00 0.00 0.00 0.00 0.00 0.00 0.00 0.00 0.00 0.00 0.00 0.00 0.00 0.00 0.00 0.00 0.00 0.00 0.02 0.07 0.02 0.00 0.00 0.00 0.00 0.06 0.11 0.05 0.04 0.05 0.05 0.15 0.14 0.10 0.04 0.01 0.02 0.05 0.06 0.00 0.05
0.00 0.00 0.00 0.00 0.00 0.00 0.00 0.00 0.00 0.00 0.00 0.00 0.00 0.00 0.00 0.00 0.00 0.00 0.00 0.00 0.02 0.04 0.01 0.00 0.00 0.00 0.04 0.03 0.03 0.01 0.00 0.01 0.02 0.05 0.05 0.05 0.08 0.04 0.03 0.08 0.02 0.02 0.05
0.00 0.00 0.00 0.00 0.00 0.00 0.00 0.00 0.00 0.00 0.00 0.00 0.00 0.00 0.00 0.00 0.00 0.00 0.00 0.00 0.01 0.03 0.04 0.00 0.01 0.00 0.01 0.00 0.01 0.00 0.00 0.02 0.02 0.01 0.06 0.06 0.03 0.06 0.04 0.09 0.02 0.04 0.03
0.00 0.00 0.00 0.00 0.00 0.00 0.00 0.00 0.00 0.00 0.00 0.00 0.00 0.00 0.01 0.01 0.05 0.07 0.04 0.02 0.03 0.05 0.07 0.03 0.03 0.03 0.03 0.03 0.02 0.00 0.01 0.01 0.05 0.06 0.02 0.14 0.05 0.13 0.06 0.04 0.04 0.04 0.03
0.00 0.00 0.00 0.00 0.00 0.00 0.00 0.00 0.00 0.00 0.00 0.00 0.00 0.01 0.01 0.04 0.09 0.06 0.11 0.11 0.06 0.09 0.13 0.07 0.14 0.10 0.07 0.03 0.01 0.00 0.01 0.04 0.07 0.16 0.12 0.17 0.11 0.20 0.10 0.10 0.11 0.08 0.07
0.00 0.00 0.00 0.00 0.00 0.00 0.00 0.00 0.00 0.00 0.00 0.00 0.00 0.02 0.02 0.04 0.11 0.11 0.14 0.18 0.08 0.11 0.32 0.31 0.24 0.17 0.06 0.04 0.00 0.01 0.01 0.01 0.01 0.12 0.06 0.20 0.08 0.18 0.07 0.03 0.02 0.03 0.01
0.00 0.00 0.00 0.00 0.00 0.00 0.00 0.00 0.00 0.00 0.00 0.00 0.00 0.01 0.01 0.04 0.09 0.10 0.12 0.31 0.45 0.81 0.77 0.75 0.65 0.23 0.07 0.01 0.00 0.01 0.02 0.00 0.01 0.06 0.06 0.18 0.10 0.18 0.04 0.03 0.02 0.01 0.01
0.00 0.00 0.00 0.00 0.00 0.00 0.00 0.00 0.00 0.00 0.00 0.00 0.01 0.03 0.04 0.16 0.34 0.39 0.35 0.62 0.95 0.93 0.95 1.00 0.78 0.27 0.18 0.10 0.04 0.04 0.05 0.03 0.07 0.14 0.05 0.07 0.19 0.33 0.14 0.02 0.01 0.00 0.00
0.00 0.00 0.00 0.00 0.00 0.00 0.00 0.00 0.00 0.00 0.00 0.01 0.04 0.04 0.09 0.23 0.20 0.55 0.87 0.89 1.37 1.89 1.28 1.11 0.67 0.40 0.31 0.28 0.13 0.22 0.09 0.01 0.05 0.14 0.09 0.02 0.20 0.21 0.10 0.02 0.00 0.00 0.00
0.00 0.00 0.00 0.00 0.00 0.00 0.00 0.00 0.00 0.00 0.00 0.00 0.00 0.00 0.01 0.01 0.06 0.08 0.48 1.29 1.31 1.45 1.39 1.45 1.31 1.18 0.72 0.56 0.36 0.30 0.15 0.12 0.14 0.12 0.08 0.00 0.02 0.04 0.03 0.02 0.01 0.00 0.00
0.00 0.00 0.00 0.00 0.00 0.00 0.00 0.00 0.00 0.00 0.00 0.00 0.00 0.00 0.00 0.00 0.01 0.00 0.16 0.23 0.73 0.83 1.05 1.32 1.29 1.44 1.40 0.81 0.78 0.58 0.37 0.21 0.20 0.16 0.08 0.10 0.03 0.02 0.01 0.02 0.02 0.01 0.01
0.00 0.00 0.00 0.00 0.00 0.00 0.00 0.00 0.00 0.00 0.00 0.00 0.00 0.00 0.01 0.01 0.01 0.11 0.24 0.07 0.41 0.43 0.51 1.08 1.10 0.93 0.88 0.64 0.78 0.59 0.32 0.19 0.11 0.07 0.04 0.25 0.10 0.03 0.01 0.01 0.01 0.01 0.02
0.00 0.00 0.00 0.00 0.00 0.00 0.00 0.00 0.00 0.00 0.00 0.00 0.00 0.03 0.05 0.05 0.01 0.03 0.06 0.01 0.01 0.09 0.11 0.28 0.81 0.48 0.35 0.35 0.52 0.48 0.22 0.10 0.06 0.07 0.06 0.24 0.17 0.08 0.02 0.01 0.02 0.02 0.03
0.01 0.00 0.00 0.00 0.00 0.00 0.00 0.00 0.00 0.00 0.00 0.01 0.01 0.04 0.05 0.05 0.01 0.00 0.00 0.00 0.00 0.01 0.02 0.02 0.16 0.28 0.26 0.33 0.38 0.43 0.20 0.07 0.02 0.03 0.03 0.10 0.21 0.05 0.08 0.02 0.02 0.02 0.02
0.01 0.00 0.00 0.00 0.00 0.00 0.00 0.00 0.00 0.00 0.00 0.02 0.02 0.03 0.03 0.04 0.02 0.00 0.01 0.01 0.01 0.00 0.00 0.01 0.05 0.18 0.32 0.34 0.35 0.34 0.20 0.07 0.04 0.02 0.02 0.02 0.12 0.05 0.03 0.04 0.03 0.02 0.01
0.00 0.00 0.01 0.00 0.01 0.00 0.00 0.00 0.00 0.00 0.00 0.01 0.03 0.02 0.02 0.03 0.04 0.00 0.00 0.01 0.01 0.00 0.02 0.06 0.12 0.27 0.41 0.42 0.54 0.31 0.15 0.07 0.03 0.04 0.01 0.00 0.01 0.03 0.02 0.03 0.03 0.02 0.01
0.00 0.00 0.01 0.00 0.02 0.03 0.00 0.00 0.00 0.00 0.00 0.00 0.00 0.02 0.03 0.03 0.03 0.02 0.02 0.01 0.00 0.01 0.02 0.06 0.20 0.53 0.58 0.45 0.59 0.36 0.12 0.05 0.04 0.06 0.03 0.00 0.00 0.00 0.00 0.01 0.03 0.03 0.03
0.00 0.00 0.00 0.00 0.01 0.06 0.02 0.00 0.00 0.00 0.00 0.00 0.00 0.01 0.02 0.07 0.07 0.05 0.04 0.03 0.02 0.06 0.13 0.19 0.18 0.55 0.51 0.35 0.31 0.34 0.12 0.06 0.03 0.06 0.03 0.00 0.00 0.00 0.00 0.01 0.02 0.03 0.04
0.00 0.00 0.00 0.00 0.00 0.04 0.07 0.01 0.01 0.01 0.00 0.01 0.01 0.00 0.02 0.04 0.06 0.06 0.05 0.03 0.06 0.12 0.13 0.27 0.29 0.47 0.59 0.37 0.19 0.26 0.10 0.05 0.04 0.03 0.02 0.00 0.00 0.00 0.00 0.00 0.01 0.01 0.03
0.00 0.00 0.00 0.01 0.04 0.14 0.14 0.17 0.17 0.03 0.01 0.00 0.00 0.00 0.02 0.06 0.05 0.07 0.08 0.07 0.10 0.10 0.09 0.27 0.38 0.44 0.60 0.43 0.27 0.28 0.16 0.04 0.05 0.04 0.01 0.00 0.00 0.00 0.00 0.00 0.00 0.01 0.01
0.00 0.00 0.00 0.01 0.05 0.07 0.05 0.06 0.05 0.00 0.02 0.03 0.00 0.00 0.01 0.02 0.08 0.11 0.08 0.07 0.05 0.05 0.11 0.24 0.42 0.44 0.57 0.58 0.52 0.45 0.32 0.15 0.06 0.04 0.01 0.00 0.00 0.00 0.00 0.00 0.00 0.00 0.00
0.00 0.00 0.00 0.00 0.02 0.01 0.02 0.05 0.06 0.10 0.11 0.08 0.03 0.01 0.00 0.01 0.03 0.07 0.07 0.07 0.11 0.10 0.04 0.24 0.33 0.36 0.47 0.43 0.39 0.33 0.37 0.34 0.22 0.05 0.01 0.00 0.00 0.00 0.00 0.00 0.00 0.00 0.00
0.00 0.00 0.00 0.01 0.02 0.01 0.01 0.03 0.06 0.10 0.07 0.12 0.03 0.02 0.00 0.01 0.02 0.05 0.14 0.17 0.13 0.19 0.15 0.16 0.24 0.19 0.29 0.32 0.15 0.22 0.19 0.18 0.10 0.05 0.01 0.00 0.00 0.00 0.00 0.00 0.00 0.00 0.00
0.00 0.00 0.00 0.01 0.02 0.01 0.02 0.02 0.02 0.01 0.00 0.00 0.00 0.01 0.01 0.02 0.05 0.06 0.02 0.05 0.11 0.14 0.25 0.24 0.24 0.23 0.20 0.25 0.15 0.17 0.06 0.05 0.05 0.10 0.07 0.01 0.00 0.00 0.00 0.00 0.00 0.00 0.00
0.00 0.00 0.00 0.05 0.04 0.01 0.03 0.02 0.03 0.02 0.03 0.06 0.04 0.01 0.01 0.01 0.02 0.03 0.02 0.06 0.13 0.14 0.20 0.25 0.29 0.29 0.19 0.18 0.09 0.12 0.12 0.08 0.13 0.14 0.12 0.04 0.00 0.00 0.00 0.00 0.00 0.00 0.00
0.08 0.04 0.00 0.03 0.04 0.05 0.03 0.04 0.04 0.02 0.05 0.04 0.02 0.01 0.01 0.01 0.01 0.02 0.04 0.06 0.14 0.15 0.19 0.29 0.29 0.30 0.25 0.22 0.19 0.08 0.08 0.10 0.11 0.11 0.06 0.02 0.00 0.00 0.00 0.00 0.00 0.00 0.00